Preview of NWS' New Version of Forecast
This preview is not operational and should not be used for support decisions.

Regional Weather Roundup (RWR)

Issued by National Weather Service (NWS)

                            
000
ASUS43 KMKX 202320
RWRWI 

WISCONSIN REGIONAL WEATHER ROUNDUP
NATIONAL WEATHER SERVICE MILWAUKEE/SULLIVAN WI
500 PM CST WED FEB 20 2019

NOTE: "FAIR" INDICATES FEW OR NO CLOUDS BELOW 12,000 FEET WITH NO
SIGNIFICANT WEATHER AND/OR OBSTRUCTIONS TO VISIBILITY.

WIZ001-002-006>008-014>016-023>028-210000-
NORTHWEST WISCONSIN
  
CITY           SKY/WX    TMP DP  RH WIND       PRES   REMARKS
SUPERIOR ARPT  LGT SNOW  23  21  94 NE16G22   29.64F VSB 1   WCI   9  
ASHLAND        SNOW      24  22  91 NE13      29.62F VSB 1/2 WCI  12  
HAYWARD        SNOW      25  23  92 NE5       29.57F VSB 1/2 WCI  19  
SIREN          LGT SNOW  26  24  91 NE3       29.58S                  
CUMBERLAND     LGT SNOW  27  23  86 CALM      29.55F                  
RICE LAKE      LGT SNOW  27  13  55 SE7       29.57F WCI  20          
CHETEK         LGT SNOW  26  24  93 SE5       29.56F WCI  20          
LADYSMITH      LGT SNOW  27  25  91 SE6       29.58S VSB 1   WCI  20  
EAU CLAIRE     LGT SNOW  27  24  89 SE7       29.56F FOG     WCI  19  
MENOMONIE      LGT SNOW  24  24  98 SE5       29.58R WCI  19          
NEW RICHMOND   MIX PCPN  27  23  84 S7        29.57S WCI  20          
OSCEOLA        CLOUDY    27  25  91 SE5       29.60S WCI  22          
$$
 
WIZ003>005-009-010-017-018-210000-
NORTH CENTRAL WISCONSIN
  
CITY           SKY/WX    TMP DP  RH WIND       PRES   REMARKS
MANITOWISH WTR NOT AVBL                                               
ARBOR VITAE    LGT SNOW  25  22  89 SE7G16    29.56F VSB 3/4 WCI  17  
WOODRUFF       LGT SNOW  25  22  89 SE7G16    29.56F VSB 3/4 WCI  17  
RHINELANDER    SNOW      25  20  81 E9        29.56F VSB 1/2 WCI  15  
EAGLE RIVER    LGT SNOW  23  19  85 SE10G16   29.57F VSB 3/4 WCI  13  
LAND O LAKES   LGT SNOW  24  21  90 SE8       29.59F WCI  14          
PHILLIPS       LGT SNOW  25  23  95 SE9       29.55F WCI  15          
TOMAHAWK       LGT SNOW  24  22  90 CALM      29.58S                  
MEDFORD        LGT SNOW  24  22  91 SE7       29.55F WCI  16          
MERRILL        SNOW      25  24  94 SE5       29.57F VSB 1/2 WCI  20  
$$
 
WIZ029-030-035-036-043>047-210000-
CENTRAL WISCONSIN
  
CITY           SKY/WX    TMP DP  RH WIND       PRES   REMARKS
WAUSAU         LGT SNOW  26  23  88 E8        29.55F FOG     WCI  18  
MOSINEE        LGT SNOW  27  25  93 E7        29.58F VSB 3/4 WCI  19  
MARSHFIELD     LGT SNOW  25  23  92 SE7       29.55F FOG     WCI  17  
STEVENS POINT  MIX PCPN  24  24 100 E5        29.58F WCI  19          
WAUPACA        LGT SNOW  30  26  88 CALM      29.59F                  
WAUTOMA        LGT SNOW  28  27  93 CALM      29.59F FOG              
WISC RAPIDS    LGT SNOW  27  22  81 S5        29.59S WCI  22          
CAMP DOUGLAS   LGT SNOW  28  28 100 CALM      29.58F FOG              
$$
 
WIZ011>013-019>022-031-037>040-048>050-210000-
NORTHEAST WISCONSIN
  
CITY           SKY/WX    TMP DP  RH WIND       PRES   REMARKS
ANTIGO         LGT SNOW  24  22  93 E6        29.57F WCI  17          
SHAWANO        LGT SNOW  30  26  86 NE3       29.62F                  
OCONTO         CLOUDY    28  27  96 E7        29.62F VSB 1/2 WCI  21  
STURGEON BAY   LGT SNOW  31  29  92 SE8       29.64F FOG     WCI  23  
GREEN BAY      LGT SNOW  33  30  88 SE3       29.61F FOG              
MANITOWOC      LGT SNOW  34  32  93 S13       29.62F FOG     WCI  25  
APPLETON       LGT SNOW  30  30 100 SE6       29.58F WCI  24          
CLINTONVILLE   LGT SNOW  28  25  89 E6        29.60F WCI  22          
OSHKOSH        CLOUDY    32  30  92 S12       29.59S WCI  23          
$$
 
WIZ032>034-041-042-053>061-210000-
SOUTHWEST WISCONSIN
  
CITY           SKY/WX    TMP DP  RH WIND       PRES   REMARKS
LA CROSSE      CLOUDY    33  28  81 SW10G20   29.60S HAZE    WCI  25  
SPARTA         LGT SNOW  31  29  92 CALM      29.60S                  
VIROQUA        CLOUDY    31  29  93 SW15G22   29.59R WCI  20          
BOSCOBEL       LGT RAIN  35  28  75 SW12      29.64R WCI  27          
PRAIRIE DU CHI CLOUDY    33  26  76 SW10      29.67R WCI  24          
PLATTEVILLE    CLOUDY    33  32  96 SW16      29.66R WCI  23          
$$

WIZ056-057-062-063-064-067-068-210000-
SOUTH CENTRAL WISCONSIN
  
CITY           SKY/WX    TMP DP  RH WIND       PRES   REMARKS
REEDSBURG      CLOUDY    32  30  91 SW13      29.60R WCI  23          
BARABOO/DELLS  CLOUDY    33  29  88 SW13G18   29.60R WCI  23          
LONE ROCK      CLOUDY    35  30  82 SW16G26   29.63R WCI  25          
MINERAL POINT  CLOUDY    34  32  93 SW18G24   29.62S WCI  23          
MADISON        CLOUDY    34  30  85 SW7G18    29.62S WCI  28          
MIDDLETON      CLOUDY    35  32  87 SW10G20   29.63R WCI  27          
WATERTOWN      CLOUDY    33  33 100 SW13      29.62S WCI  24          
MONROE         CLOUDY    33  31  92 MISG      29.65R                  
JANESVILLE     CLOUDY    36  36 100 SW12G17   29.65F WCI  27          
$$
 
WIZ051-052-058>065-066-070>072-210000-
SOUTHEAST WISCONSIN
  
CITY           SKY/WX    TMP DP  RH WIND       PRES   REMARKS
MILWAUKEE      CLOUDY    35  31  85 SW12      29.64S FOG     WCI  27  
WAUKESHA       FRZ DRZL  32  30  93 SW7       29.64S WCI  26          
MILWAUKEE/TIMM CLOUDY    34  30  86 S10       29.64F FOG     WCI  26  
RACINE         CLOUDY    34  32  92 SW8       29.67R WCI  27          
KENOSHA        CLOUDY    36  34  92 SW17G29   29.66R WCI  26          
FOND DU LAC    FLURRIES  33  30  88 S12       29.60S WCI  24          
SHEBOYGAN      CLOUDY    33  31  92 S14       29.61F FOG     WCI  23  
WEST BEND      LGT SNOW  32  32 100 SW8       29.62F WCI  25          
JUNEAU         FLURRIES  32  31  98 S10       29.62S WCI  24          
$$

LSZ147-162-210000-
LAKE SUPERIOR
  
STATION/POSITION TIME  TEMP    WIND        PRES    WAVE
                       AIR SEA DIR/SP/G            HT/PER
                 (UTC) (F)     (DEG/KT/KT) (MB)    (FT/S)
DEVILS ISLAND    2300   26      70/ 23/ 28 1006.1F
SAXON HARBOR     2230   24      50/ 10/ 11 1003.7F
$$
 
LMZ867-665-643>646-210000-
LAKE MICHIGAN
  
STATION/POSITION TIME  TEMP    WIND        PRES    WAVE
                       AIR SEA DIR/SP/G            HT/PER
                 (UTC) (F)     (DEG/KT/KT) (MB)    (FT/S)
CHAMBERS ISLAND  2240   27      70/  8/ 13 1003.7F
NORTHPORT PIER   2240   28     100/ 10/ 13 1004.7F
KEWAUNEE LAKESHO 2300   32     170/ 16/ 18 1002.7
SHEBOYGAN LAKESH 2300   33     190/ 15/ 18 1003.6F
PORT WASHINGTON  2230   33     190/  8/ 15 1005.1F
MILWAUKEE LAKESH 2300   34     220/  7/ 11   N/A
KENOSHA   LAKESH 2300   36     240/ 11/ 20 1004.7
$$

TC  - TEMPERATURE IN CELSIUS
VSB - VISIBILITY IN STATUTE MILES
WCI - WIND CHILL INDEX
HX  - HEAT INDEX